Location: Hackbridge
(51.3833°N, 0.1500°W)
Time: 09:34:06
(UTC+00:00)

STARLINK-34 - Pass Details

Date: 13 October 2019
Orbit: 548 x 552 km, 53.0° (Epoch: 12 November)

Event Time Altitude Azimuth Distance (km) Brightness Sun altitude
Rises 18:21:14 0° 221° (SW) 2,707 7.8 -11.5°
Reaches altitude 10° 18:23:34 10° 213° (SSW) 1,817 6.7 -11.9°
Maximum altitude 18:27:23 37° 146° (SE) 863 4.3 -12.5°
Enters shadow 18:29:39 20° 91° (E) 1,287 4.8 -12.8°
